Location: Montr�al
(45.5000°N, 73.5830°W)
Time: 23:33:14
(UTC-04:00)

Cosmos 1151 Rocket - Visible Passes

Search period start: 24 June 2017 00:00
Search period end: 04 July 2017 00:00
Orbit: 594 x 615 km, 82.5° (Epoch: 24 June)

Date Brightness Start Highest point End Pass type
(mag) Time Alt. Az. Time Alt. Az. Time Alt. Az.
24 Jun 4.9 21:41:52 10° NNE 21:44:49 17° ENE 21:47:45 10° ESE visible
24 Jun 3.7 23:18:26 10° NNW 23:22:41 48° W 23:24:51 26° SSW visible
25 Jun 4.3 21:54:04 10° NNE 21:57:49 27° ENE 22:00:51 13° SE visible
25 Jun 4.5 23:31:31 10° NNW 23:35:21 30° W 23:37:42 18° SW visible
26 Jun 3.7 22:06:32 10° N 22:10:43 42° ENE 22:13:43 17° SE visible
26 Jun 5.2 23:44:53 10° NW 23:47:58 19° W 23:50:35 12° SW visible
27 Jun 3.1 22:19:10 10° N 22:23:34 69° E 22:26:37 19° SSE visible
27 Jun 5.6 23:58:56 10° WNW 00:00:30 12° W 00:02:02 10° WSW visible
28 Jun 3.2 22:31:58 10° NNW 22:36:21 72° W 22:39:31 18° S visible
29 Jun 4.0 22:44:54 10° NNW 22:49:04 43° W 22:52:26 15° SSW visible
30 Jun 4.1 21:20:23 10° NNE 21:24:14 29° ENE 21:28:04 10° SE visible
30 Jun 4.8 22:58:02 10° NNW 23:01:43 27° W 23:05:21 10° SW visible
01 Jul 3.5 21:32:53 10° N 21:37:09 47° ENE 21:41:21 10° SSE visible
01 Jul 5.5 23:11:29 10° NW 23:14:18 17° W 23:17:06 10° SW visible
02 Jul 3.0 21:45:34 10° N 21:49:59 78° E 21:54:20 10° SSE visible
02 Jul 5.9 23:26:09 10° WNW 23:26:49 10° W 23:27:30 10° W visible
03 Jul 3.4 21:58:23 10° NNW 22:02:44 64° W 22:07:02 10° S visible
